Location: Bluff Heights
(33.7692°N, 118.1592°W)
Time: 08:27:08
(UTC+00:00)

Cosmos 1697 Rocket - Pass Details

Date: 29 October 2020
Orbit: 831 x 845 km, 71.0° (Epoch: 28 November)

Event Time Altitude Azimuth Distance (km) Brightness Sun altitude
Exits shadow 12:31:58 17° 332° (NNW) 1,991 4.3 -20.8°
Maximum altitude 12:36:19 70° 252° (WSW) 894 2.6 -19.9°
Drops below altitude 10° 12:41:55 10° 169° (S) 2,455 5.3 -18.8°
Sets 12:44:21 0° 167° (SSE) 3,386 6.1 -18.3°
